;Netzebenenlast
;HS
;FE_HS_Netzebenenlast
Datum;Leistungsmittelwert in kW
01.01.2023 00:15;138305
01.01.2023 00:30;138437
01.01.2023 00:45;138542
01.01.2023 01:00;137270
01.01.2023 01:15;138542
01.01.2023 01:30;138199
01.01.2023 01:45;137830
01.01.2023 02:00;137830
01.01.2023 02:15;137856
01.01.2023 02:30;138569
01.01.2023 02:45;138014
01.01.2023 03:00;138014
01.01.2023 03:15;137455
01.01.2023 03:30;138358
01.01.2023 03:45;138252
01.01.2023 04:00;138173
01.01.2023 04:15;137539
01.01.2023 04:30;137539
01.01.2023 04:45;137803
01.01.2023 05:00;137592
01.01.2023 05:15;137882
01.01.2023 05:30;137724
01.01.2023 05:45;137962
01.01.2023 06:00;138278
01.01.2023 06:15;138252
01.01.2023 06:30;137350
01.01.2023 06:45;138305
01.01.2023 07:00;138041
01.01.2023 07:15;137988
01.01.2023 07:30;139070
01.01.2023 07:45;138415
01.01.2023 08:00;138041
01.01.2023 08:15;138252
01.01.2023 08:30;137983
01.01.2023 08:45;139546
01.01.2023 09:00;139202
01.01.2023 09:15;139123
01.01.2023 09:30;139867
01.01.2023 09:45;139414
01.01.2023 10:00;139783
01.01.2023 10:15;139044
01.01.2023 10:30;138120
01.01.2023 10:45;138014
01.01.2023 11:00;137777
01.01.2023 11:15;137491
01.01.2023 11:30;138146
01.01.2023 11:45;137486
01.01.2023 12:00;137170
01.01.2023 12:15;137856
01.01.2023 12:30;137566
01.01.2023 12:45;137935
01.01.2023 13:00;137566
01.01.2023 13:15;137698
01.01.2023 13:30;137434
01.01.2023 13:45;133078
01.01.2023 14:00;132418
01.01.2023 14:15;133262
01.01.2023 14:30;132418
01.01.2023 14:45;132761
01.01.2023 15:00;133231
01.01.2023 15:15;133262
01.01.2023 15:30;133421
01.01.2023 15:45;133843
01.01.2023 16:00;134186
01.01.2023 16:15;133342
01.01.2023 16:30;134028
01.01.2023 16:45;134054
01.01.2023 17:00;133394
01.01.2023 17:15;132497
01.01.2023 17:30;132550
01.01.2023 17:45;132312
01.01.2023 18:00;132233
01.01.2023 18:15;133130
01.01.2023 18:30;132233
01.01.2023 18:45;132312
01.01.2023 19:00;132550
01.01.2023 19:15;134345
01.01.2023 19:30;133738
01.01.2023 19:45;134820
01.01.2023 20:00;134398
01.01.2023 20:15;136013
01.01.2023 20:30;135269
01.01.2023 20:45;135084
01.01.2023 21:00;135269
01.01.2023 21:15;135876
01.01.2023 21:30;134028
01.01.2023 21:45;133870
01.01.2023 22:00;133130
01.01.2023 22:15;133051
01.01.2023 22:30;131309
01.01.2023 22:45;131758
01.01.2023 23:00;132866
01.01.2023 23:15;133241
01.01.2023 23:30;131942
01.01.2023 23:45;133447
02.01.2023 00:00;131546
02.01.2023 00:15;131546
02.01.2023 00:30;130226
02.01.2023 00:45;128880
02.01.2023 01:00;129091
02.01.2023 01:15;130358
02.01.2023 01:30;127375
02.01.2023 01:45;128009
02.01.2023 02:00;127591
02.01.2023 02:15;127718
02.01.2023 02:30;128009
02.01.2023 02:45;128959
02.01.2023 03:00;128669
02.01.2023 03:15;131256
02.01.2023 03:30;129936
02.01.2023 03:45;130279
02.01.2023 04:00;130253
02.01.2023 04:15;130332
02.01.2023 04:30;131863
02.01.2023 04:45;132919
02.01.2023 05:00;132470
02.01.2023 05:15;133790
02.01.2023 05:30;134266
02.01.2023 05:45;134213
02.01.2023 06:00;134662
02.01.2023 06:15;136488
02.01.2023 06:30;138542
02.01.2023 06:45;140945
02.01.2023 07:00;141552
02.01.2023 07:15;141156
02.01.2023 07:30;141262
02.01.2023 07:45;141130
02.01.2023 08:00;142058
02.01.2023 08:15;141314
02.01.2023 08:30;141235
02.01.2023 08:45;144535
02.01.2023 09:00;143083
02.01.2023 09:15;144166
02.01.2023 09:30;144487
02.01.2023 09:45;143294
02.01.2023 10:00;145248
02.01.2023 10:15;143057
02.01.2023 10:30;146304
02.01.2023 10:45;145802
02.01.2023 11:00;146014
02.01.2023 11:15;145781
02.01.2023 11:30;145063
02.01.2023 11:45;145248
02.01.2023 12:00;146806
02.01.2023 12:15;145248
02.01.2023 12:30;144034
02.01.2023 12:45;144958
02.01.2023 13:00;142634
02.01.2023 13:15;143642
02.01.2023 13:30;144562
02.01.2023 13:45;143690
02.01.2023 14:00;142555
02.01.2023 14:15;143268
02.01.2023 14:30;141794
02.01.2023 14:45;139018
02.01.2023 15:00;140153
02.01.2023 15:15;138991
02.01.2023 15:30;138890
02.01.2023 15:45;139044
02.01.2023 16:00;141631
02.01.2023 16:15;144350
02.01.2023 16:30;146784
02.01.2023 16:45;148548
02.01.2023 17:00;147730
02.01.2023 17:15;147360
02.01.2023 17:30;147338
02.01.2023 17:45;143083
02.01.2023 18:00;141156
02.01.2023 18:15;138358
02.01.2023 18:30;138230
02.01.2023 18:45;139678
02.01.2023 19:00;141415
02.01.2023 19:15;140443
02.01.2023 19:30;139990
02.01.2023 19:45;141389
02.01.2023 20:00;140729
02.01.2023 20:15;142524
02.01.2023 20:30;141125
02.01.2023 20:45;141521
02.01.2023 21:00;139990
02.01.2023 21:15;142150
02.01.2023 21:30;143210
02.01.2023 21:45;143606
02.01.2023 22:00;142841
02.01.2023 22:15;140148
02.01.2023 22:30;138010
02.01.2023 22:45;137904
02.01.2023 23:00;137693
02.01.2023 23:15;138960
02.01.2023 23:30;139937
02.01.2023 23:45;140650
03.01.2023 00:00;140090
03.01.2023 00:15;141547
03.01.2023 00:30;141574
03.01.2023 00:45;135660
03.01.2023 01:00;134894
03.01.2023 01:15;134102
03.01.2023 01:30;134789
03.01.2023 01:45;134155
03.01.2023 02:00;131806
03.01.2023 02:15;128849
03.01.2023 02:30;124783
03.01.2023 02:45;128770
03.01.2023 03:00;130248
03.01.2023 03:15;129826
03.01.2023 03:30;128321
03.01.2023 03:45;127476
03.01.2023 04:00;126230
03.01.2023 04:15;127318
03.01.2023 04:30;127925
03.01.2023 04:45;128743
03.01.2023 05:00;129403
03.01.2023 05:15;130459
03.01.2023 05:30;133680
03.01.2023 05:45;132307
03.01.2023 06:00;131225
03.01.2023 06:15;131858
03.01.2023 06:30;132175
03.01.2023 06:45;134366
03.01.2023 07:00;134762
03.01.2023 07:15;140254
03.01.2023 07:30;140016
03.01.2023 07:45;138722
03.01.2023 08:00;137297
03.01.2023 08:15;136214
03.01.2023 08:30;136003
03.01.2023 08:45;134815
03.01.2023 09:00;132281
03.01.2023 09:15;130644
03.01.2023 09:30;135977
03.01.2023 09:45;137407
03.01.2023 10:00;135475
03.01.2023 10:15;133812
03.01.2023 10:30;132492
03.01.2023 10:45;135343
03.01.2023 11:00;134974
03.01.2023 11:15;135739
03.01.2023 11:30;137350
03.01.2023 11:45;137719
03.01.2023 12:00;136954
03.01.2023 12:15;137909
03.01.2023 12:30;138194
03.01.2023 12:45;137746
03.01.2023 13:00;138631
03.01.2023 13:15;142579
03.01.2023 13:30;141714
03.01.2023 13:45;138590
03.01.2023 14:00;138520
03.01.2023 14:15;138593
03.01.2023 14:30;141378
03.01.2023 14:45;150187
03.01.2023 15:00;156160
03.01.2023 15:15;155682
03.01.2023 15:30;156431
03.01.2023 15:45;158089
03.01.2023 16:00;157356
03.01.2023 16:15;156568
03.01.2023 16:30;158209
03.01.2023 16:45;156994
03.01.2023 17:00;157668
03.01.2023 17:15;159930
03.01.2023 17:30;160143
03.01.2023 17:45;158313
03.01.2023 18:00;158077
03.01.2023 18:15;156354
03.01.2023 18:30;157023
03.01.2023 18:45;157778
03.01.2023 19:00;158785
03.01.2023 19:15;157306
03.01.2023 19:30;156753
03.01.2023 19:45;157320
03.01.2023 20:00;156595
03.01.2023 20:15;157436
03.01.2023 20:30;158394
03.01.2023 20:45;157338
03.01.2023 21:00;157694
03.01.2023 21:15;158966
03.01.2023 21:30;158803
03.01.2023 21:45;158134
03.01.2023 22:00;157172
03.01.2023 22:15;157010
03.01.2023 22:30;157248
03.01.2023 22:45;157486
03.01.2023 23:00;158579
03.01.2023 23:15;158060
03.01.2023 23:30;158531
03.01.2023 23:45;159255
04.01.2023 00:00;159722
04.01.2023 00:15;159123
04.01.2023 00:30;159292
04.01.2023 00:45;160004
04.01.2023 01:00;158616
04.01.2023 01:15;158066
04.01.2023 01:30;156991
04.01.2023 01:45;157401
04.01.2023 02:00;157615
04.01.2023 02:15;156487
04.01.2023 02:30;156565
04.01.2023 02:45;158258
04.01.2023 03:00;158077
04.01.2023 03:15;158198
04.01.2023 03:30;158081
04.01.2023 03:45;157166
04.01.2023 04:00;156089
04.01.2023 04:15;156887
04.01.2023 04:30;155249
04.01.2023 04:45;156742
04.01.2023 05:00;158090
04.01.2023 05:15;158257
04.01.2023 05:30;158930
04.01.2023 05:45;157367
04.01.2023 06:00;156343
04.01.2023 06:15;157306
04.01.2023 06:30;158832
04.01.2023 06:45;159596
04.01.2023 07:00;160027
04.01.2023 07:15;161918
04.01.2023 07:30;163156
04.01.2023 07:45;163123
04.01.2023 08:00;162193
04.01.2023 08:15;163147
04.01.2023 08:30;163178
04.01.2023 08:45;164842
04.01.2023 09:00;164875
04.01.2023 09:15;164187
04.01.2023 09:30;163583
04.01.2023 09:45;163364
04.01.2023 10:00;162261
04.01.2023 10:15;159876
04.01.2023 10:30;161850
04.01.2023 10:45;162340
04.01.2023 11:00;163488
04.01.2023 11:15;163220
04.01.2023 11:30;159643
04.01.2023 11:45;158550
04.01.2023 12:00;159618
04.01.2023 12:15;159379
04.01.2023 12:30;158274
04.01.2023 12:45;157909
04.01.2023 13:00;159119
04.01.2023 13:15;159428
04.01.2023 13:30;158661
04.01.2023 13:45;156099
04.01.2023 14:00;156943
04.01.2023 14:15;157097
04.01.2023 14:30;158423
04.01.2023 14:45;159109
04.01.2023 15:00;159206
04.01.2023 15:15;158671
04.01.2023 15:30;158686
04.01.2023 15:45;158206
04.01.2023 16:00;157910
04.01.2023 16:15;157521
04.01.2023 16:30;157243
04.01.2023 16:45;156874
04.01.2023 17:00;157383
04.01.2023 17:15;158323
04.01.2023 17:30;157396
04.01.2023 17:45;159387
04.01.2023 18:00;158438
04.01.2023 18:15;156786
04.01.2023 18:30;155819
04.01.2023 18:45;157153
04.01.2023 19:00;156921
04.01.2023 19:15;156053
04.01.2023 19:30;155681
04.01.2023 19:45;157752
04.01.2023 20:00;158262
04.01.2023 20:15;157511
04.01.2023 20:30;157270
04.01.2023 20:45;158166
04.01.2023 21:00;158383
04.01.2023 21:15;158136
04.01.2023 21:30;157762
04.01.2023 21:45;157284
04.01.2023 22:00;157258
04.01.2023 22:15;157440
04.01.2023 22:30;159402
04.01.2023 22:45;159170
04.01.2023 23:00;157399
04.01.2023 23:15;157386
04.01.2023 23:30;157818
04.01.2023 23:45;157104
05.01.2023 00:00;157561
05.01.2023 00:15;157569
05.01.2023 00:30;156750
05.01.2023 00:45;156845
05.01.2023 01:00;156053
05.01.2023 01:15;158291
05.01.2023 01:30;157906
05.01.2023 01:45;159007
05.01.2023 02:00;157917
05.01.2023 02:15;155794
05.01.2023 02:30;155246
05.01.2023 02:45;155778
05.01.2023 03:00;156564
05.01.2023 03:15;157480
05.01.2023 03:30;157614
05.01.2023 03:45;157970
05.01.2023 04:00;156895
05.01.2023 04:15;156739
05.01.2023 04:30;156857
05.01.2023 04:45;156766
05.01.2023 05:00;157426
05.01.2023 05:15;156079
05.01.2023 05:30;155655
05.01.2023 05:45;153612
05.01.2023 06:00;153720
05.01.2023 06:15;154406
05.01.2023 06:30;156290
05.01.2023 06:45;157128
05.01.2023 07:00;158482
05.01.2023 07:15;158493
05.01.2023 07:30;157646
05.01.2023 07:45;158523
05.01.2023 08:00;157973
05.01.2023 08:15;159000
05.01.2023 08:30;158469
05.01.2023 08:45;160054
05.01.2023 09:00;159437
05.01.2023 09:15;159234
05.01.2023 09:30;160152
05.01.2023 09:45;159442
05.01.2023 10:00;158324
05.01.2023 10:15;157493
05.01.2023 10:30;158688
05.01.2023 10:45;160055
05.01.2023 11:00;160570
05.01.2023 11:15;160939
05.01.2023 11:30;161382
05.01.2023 11:45;162357
05.01.2023 12:00;162606
05.01.2023 12:15;161904
05.01.2023 12:30;162726
05.01.2023 12:45;162270
05.01.2023 13:00;162590
05.01.2023 13:15;162756
05.01.2023 13:30;160082
05.01.2023 13:45;158920
05.01.2023 14:00;157760
05.01.2023 14:15;158886
05.01.2023 14:30;158158
05.01.2023 14:45;157293
05.01.2023 15:00;157796
05.01.2023 15:15;159304
05.01.2023 15:30;159674
05.01.2023 15:45;159027
05.01.2023 16:00;158052
05.01.2023 16:15;157389
05.01.2023 16:30;156749
05.01.2023 16:45;156840
05.01.2023 17:00;157165
05.01.2023 17:15;157348
05.01.2023 17:30;157266
05.01.2023 17:45;157696
05.01.2023 18:00;159298
05.01.2023 18:15;159845
05.01.2023 18:30;160565
05.01.2023 18:45;160158
05.01.2023 19:00;160039
05.01.2023 19:15;159741
05.01.2023 19:30;159780
05.01.2023 19:45;159826
05.01.2023 20:00;159534
05.01.2023 20:15;159559
05.01.2023 20:30;160102
05.01.2023 20:45;159662
05.01.2023 21:00;159552
05.01.2023 21:15;158947
05.01.2023 21:30;159974
05.01.2023 21:45;158887
05.01.2023 22:00;157714
05.01.2023 22:15;157522
05.01.2023 22:30;159079
05.01.2023 22:45;159190
05.01.2023 23:00;159526
05.01.2023 23:15;159500
05.01.2023 23:30;159206
05.01.2023 23:45;159096
06.01.2023 00:00;158940
06.01.2023 00:15;159279
06.01.2023 00:30;158964
06.01.2023 00:45;158477
06.01.2023 01:00;158075
06.01.2023 01:15;158393
06.01.2023 01:30;157692
06.01.2023 01:45;158474
06.01.2023 02:00;158345
06.01.2023 02:15;156622
06.01.2023 02:30;157991
06.01.2023 02:45;159187
06.01.2023 03:00;158959
06.01.2023 03:15;159542
06.01.2023 03:30;159277
06.01.2023 03:45;158819
06.01.2023 04:00;159329
06.01.2023 04:15;159399
06.01.2023 04:30;158510
06.01.2023 04:45;157606
06.01.2023 05:00;158686
06.01.2023 05:15;158537
06.01.2023 05:30;157505
06.01.2023 05:45;156095
06.01.2023 06:00;156142
06.01.2023 06:15;157559
06.01.2023 06:30;158218
06.01.2023 06:45;158660
06.01.2023 07:00;158879
06.01.2023 07:15;159543
06.01.2023 07:30;160214
06.01.2023 07:45;160519
06.01.2023 08:00;161761
06.01.2023 08:15;160764
06.01.2023 08:30;160410
06.01.2023 08:45;160078
06.01.2023 09:00;160543
06.01.2023 09:15;160139
06.01.2023 09:30;159670
06.01.2023 09:45;160321
06.01.2023 10:00;159818
06.01.2023 10:15;158806
06.01.2023 10:30;159355
06.01.2023 10:45;160451
06.01.2023 11:00;160169
06.01.2023 11:15;160570
06.01.2023 11:30;159432
06.01.2023 11:45;158710
06.01.2023 12:00;159129
06.01.2023 12:15;160746
06.01.2023 12:30;158765
06.01.2023 12:45;160085
06.01.2023 13:00;160078
06.01.2023 13:15;162701
06.01.2023 13:30;162360
06.01.2023 13:45;162031
06.01.2023 14:00;161501
06.01.2023 14:15;162054
06.01.2023 14:30;164252
06.01.2023 14:45;165316
06.01.2023 15:00;163030
06.01.2023 15:15;162850
06.01.2023 15:30;162174
06.01.2023 15:45;162254
06.01.2023 16:00;163106
06.01.2023 16:15;165889
06.01.2023 16:30;164801
06.01.2023 16:45;160668
06.01.2023 17:00;161957
06.01.2023 17:15;160977
06.01.2023 17:30;159166
06.01.2023 17:45;159475
06.01.2023 18:00;159133
06.01.2023 18:15;160260
06.01.2023 18:30;161297
06.01.2023 18:45;161853
06.01.2023 19:00;161089
06.01.2023 19:15;161678
06.01.2023 19:30;160200
06.01.2023 19:45;159752
06.01.2023 20:00;160685
06.01.2023 20:15;160814
06.01.2023 20:30;161647
06.01.2023 20:45;160782
06.01.2023 21:00;160384
06.01.2023 21:15;159341
06.01.2023 21:30;160933
06.01.2023 21:45;162431
06.01.2023 22:00;162797
06.01.2023 22:15;162164
06.01.2023 22:30;162746
06.01.2023 22:45;162881
06.01.2023 23:00;163275
06.01.2023 23:15;163056
06.01.2023 23:30;162182
06.01.2023 23:45;161778
07.01.2023 00:00;161784
07.01.2023 00:15;160755
07.01.2023 00:30;162091
07.01.2023 00:45;160524
07.01.2023 01:00;161934
07.01.2023 01:15;161743
07.01.2023 01:30;160440
07.01.2023 01:45;161921
07.01.2023 02:00;162377
07.01.2023 02:15;159428
07.01.2023 02:30;159612
07.01.2023 02:45;161347
07.01.2023 03:00;160661
07.01.2023 03:15;161068
07.01.2023 03:30;160613
07.01.2023 03:45;160837
07.01.2023 04:00;160919
07.01.2023 04:15;160215
07.01.2023 04:30;160288
07.01.2023 04:45;162048
07.01.2023 05:00;164218
07.01.2023 05:15;165695
07.01.2023 05:30;165886
07.01.2023 05:45;164940
07.01.2023 06:00;164734
07.01.2023 06:15;164351
07.01.2023 06:30;165202
07.01.2023 06:45;165091
07.01.2023 07:00;164886
07.01.2023 07:15;165254
07.01.2023 07:30;165375
07.01.2023 07:45;164906
07.01.2023 08:00;165633
07.01.2023 08:15;165166
07.01.2023 08:30;164755
07.01.2023 08:45;165347
07.01.2023 09:00;165626
07.01.2023 09:15;164513
07.01.2023 09:30;164504
07.01.2023 09:45;164750
07.01.2023 10:00;164379
07.01.2023 10:15;164311
07.01.2023 10:30;165151
07.01.2023 10:45;165398
07.01.2023 11:00;164774
07.01.2023 11:15;164422
07.01.2023 11:30;165259
07.01.2023 11:45;165492
07.01.2023 12:00;164906
07.01.2023 12:15;164850
07.01.2023 12:30;164462
07.01.2023 12:45;165114
07.01.2023 13:00;164549
07.01.2023 13:15;165758
07.01.2023 13:30;164398
07.01.2023 13:45;164306
07.01.2023 14:00;164863
07.01.2023 14:15;164526
07.01.2023 14:30;164239
07.01.2023 14:45;165101
07.01.2023 15:00;164935
07.01.2023 15:15;165470
07.01.2023 15:30;164533
07.01.2023 15:45;163986
07.01.2023 16:00;164741
07.01.2023 16:15;164611
07.01.2023 16:30;164150
07.01.2023 16:45;164666
07.01.2023 17:00;163974
07.01.2023 17:15;164675
07.01.2023 17:30;164366
07.01.2023 17:45;164287
07.01.2023 18:00;164738
07.01.2023 18:15;164282
07.01.2023 18:30;164206
07.01.2023 18:45;163609
07.01.2023 19:00;163805
07.01.2023 19:15;164370
07.01.2023 19:30;164806
07.01.2023 19:45;164153
07.01.2023 20:00;165082
07.01.2023 20:15;164414
07.01.2023 20:30;166244
07.01.2023 20:45;166379
07.01.2023 21:00;167246
07.01.2023 21:15;166006
07.01.2023 21:30;167470
07.01.2023 21:45;167514
07.01.2023 22:00;170081
07.01.2023 22:15;169861
07.01.2023 22:30;170615
07.01.2023 22:45;170127
07.01.2023 23:00;170220
07.01.2023 23:15;169243
07.01.2023 23:30;168544
07.01.2023 23:45;167215
08.01.2023 00:00;168138
08.01.2023 00:15;167387
08.01.2023 00:30;168658
08.01.2023 00:45;170030
08.01.2023 01:00;169935
08.01.2023 01:15;169382
08.01.2023 01:30;169639
08.01.2023 01:45;169890
08.01.2023 02:00;170299
08.01.2023 02:15;168302
08.01.2023 02:30;169605
08.01.2023 02:45;169615
08.01.2023 03:00;170314
08.01.2023 03:15;169558
08.01.2023 03:30;170478
08.01.2023 03:45;168255
08.01.2023 04:00;168172
08.01.2023 04:15;168795
08.01.2023 04:30;169641
08.01.2023 04:45;169503
08.01.2023 05:00;170001
08.01.2023 05:15;168720
08.01.2023 05:30;168867
08.01.2023 05:45;167740
08.01.2023 06:00;167338
08.01.2023 06:15;168338
08.01.2023 06:30;169833
08.01.2023 06:45;169261
08.01.2023 07:00;169067
08.01.2023 07:15;169618
08.01.2023 07:30;169585
08.01.2023 07:45;170003
08.01.2023 08:00;169834
08.01.2023 08:15;169330
08.01.2023 08:30;170266
08.01.2023 08:45;169710
08.01.2023 09:00;169587
08.01.2023 09:15;168809
08.01.2023 09:30;169049
08.01.2023 09:45;168002
08.01.2023 10:00;169330
08.01.2023 10:15;169338
08.01.2023 10:30;170110
08.01.2023 10:45;170054
08.01.2023 11:00;169846
08.01.2023 11:15;169786
08.01.2023 11:30;169255
08.01.2023 11:45;169490
08.01.2023 12:00;168874
08.01.2023 12:15;167797
08.01.2023 12:30;167405
08.01.2023 12:45;167242
08.01.2023 13:00;167813
08.01.2023 13:15;169110
08.01.2023 13:30;170124
08.01.2023 13:45;169409
08.01.2023 14:00;170386
08.01.2023 14:15;169689
08.01.2023 14:30;169438
08.01.2023 14:45;170410
08.01.2023 15:00;168969
08.01.2023 15:15;169606
08.01.2023 15:30;169389
08.01.2023 15:45;168821
08.01.2023 16:00;167335
08.01.2023 16:15;167407
08.01.2023 16:30;168522
08.01.2023 16:45;169901
08.01.2023 17:00;169286
08.01.2023 17:15;169864
08.01.2023 17:30;168038
08.01.2023 17:45;167674
08.01.2023 18:00;168171
08.01.2023 18:15;168064
08.01.2023 18:30;169782
08.01.2023 18:45;169804
08.01.2023 19:00;170062
08.01.2023 19:15;169505
08.01.2023 19:30;169366
08.01.2023 19:45;168242
08.01.2023 20:00;168907
08.01.2023 20:15;169919
08.01.2023 20:30;170514
08.01.2023 20:45;170933
08.01.2023 21:00;170652
08.01.2023 21:15;170951
08.01.2023 21:30;170497
08.01.2023 21:45;170546
08.01.2023 22:00;171085
08.01.2023 22:15;170015
08.01.2023 22:30;169376
08.01.2023 22:45;167897
08.01.2023 23:00;168250
08.01.2023 23:15;168240
08.01.2023 23:30;169696
08.01.2023 23:45;170842
09.01.2023 00:00;169812
09.01.2023 00:15;170225
09.01.2023 00:30;169885
09.01.2023 00:45;170603
09.01.2023 01:00;170146
09.01.2023 01:15;168617
09.01.2023 01:30;170570
09.01.2023 01:45;170995
09.01.2023 02:00;170693
09.01.2023 02:15;170794
09.01.2023 02:30;170222
09.01.2023 02:45;168995
09.01.2023 03:00;169868
09.01.2023 03:15;171026
09.01.2023 03:30;171179
09.01.2023 03:45;171193
09.01.2023 04:00;171420
09.01.2023 04:15;170604
09.01.2023 04:30;171271
09.01.2023 04:45;171034
09.01.2023 05:00;171568
09.01.2023 05:15;171265
09.01.2023 05:30;170496
09.01.2023 05:45;170246
09.01.2023 06:00;169432
09.01.2023 06:15;170647
09.01.2023 06:30;170558
09.01.2023 06:45;169194
09.01.2023 07:00;169137
09.01.2023 07:15;168728
09.01.2023 07:30;169222
09.01.2023 07:45;169618
09.01.2023 08:00;168882
09.01.2023 08:15;169958
09.01.2023 08:30;169839
09.01.2023 08:45;170105
09.01.2023 09:00;169912
09.01.2023 09:15;169162
09.01.2023 09:30;169654
09.01.2023 09:45;170398
09.01.2023 10:00;170250
09.01.2023 10:15;167890
09.01.2023 10:30;168864
09.01.2023 10:45;170527
09.01.2023 11:00;170680
09.01.2023 11:15;170564
09.01.2023 11:30;170515
09.01.2023 11:45;169514
09.01.2023 12:00;169996
09.01.2023 12:15;170678
09.01.2023 12:30;170326
09.01.2023 12:45;170211
09.01.2023 13:00;170188
09.01.2023 13:15;169671
09.01.2023 13:30;169123
09.01.2023 13:45;168722
09.01.2023 14:00;169600
09.01.2023 14:15;169345
09.01.2023 14:30;169850
09.01.2023 14:45;169858
09.01.2023 15:00;169502
09.01.2023 15:15;170113
09.01.2023 15:30;168477
09.01.2023 15:45;168862
09.01.2023 16:00;168545
09.01.2023 16:15;168863
09.01.2023 16:30;169075
09.01.2023 16:45;170324
09.01.2023 17:00;168609
09.01.2023 17:15;168778
09.01.2023 17:30;168467
09.01.2023 17:45;168211
09.01.2023 18:00;167796
09.01.2023 18:15;166659
09.01.2023 18:30;166949
09.01.2023 18:45;166449
09.01.2023 19:00;166921
09.01.2023 19:15;163480
09.01.2023 19:30;159711
09.01.2023 19:45;154065
09.01.2023 20:00;147223
09.01.2023 20:15;123078
09.01.2023 20:30;120755
09.01.2023 20:45;121465
09.01.2023 21:00;120521
09.01.2023 21:15;120406
09.01.2023 21:30;120712
09.01.2023 21:45;120027
09.01.2023 22:00;119495
09.01.2023 22:15;119482
09.01.2023 22:30;120706
09.01.2023 22:45;121297
09.01.2023 23:00;121329
09.01.2023 23:15;122007
09.01.2023 23:30;120830
09.01.2023 23:45;120641
10.01.2023 00:00;121356
10.01.2023 00:15;120847
10.01.2023 00:30;121144
10.01.2023 00:45;121095
10.01.2023 01:00;121384
10.01.2023 01:15;120350
10.01.2023 01:30;121424
10.01.2023 01:45;121946
10.01.2023 02:00;121148
10.01.2023 02:15;121672
10.01.2023 02:30;120896
10.01.2023 02:45;122440
10.01.2023 03:00;123713
10.01.2023 03:15;123234
10.01.2023 03:30;121639
10.01.2023 03:45;121361
10.01.2023 04:00;121422
10.01.2023 04:15;122384
10.01.2023 04:30;121269
10.01.2023 04:45;122184
10.01.2023 05:00;123098
10.01.2023 05:15;123008
10.01.2023 05:30;123072
10.01.2023 05:45;121854
10.01.2023 06:00;121126
10.01.2023 06:15;122988
10.01.2023 06:30;123638
10.01.2023 06:45;124560
10.01.2023 07:00;124422
10.01.2023 07:15;125340
10.01.2023 07:30;125446
10.01.2023 07:45;126852
10.01.2023 08:00;126221
10.01.2023 08:15;126940
10.01.2023 08:30;125713
10.01.2023 08:45;125659
10.01.2023 09:00;125261
10.01.2023 09:15;125291
10.01.2023 09:30;126031
10.01.2023 09:45;125360
10.01.2023 10:00;125882
10.01.2023 10:15;129992
10.01.2023 10:30;137152
10.01.2023 10:45;136796
10.01.2023 11:00;132096
10.01.2023 11:15;130860
10.01.2023 11:30;131740
10.01.2023 11:45;130441
10.01.2023 12:00;125520
10.01.2023 12:15;125342
10.01.2023 12:30;125198
10.01.2023 12:45;125875
10.01.2023 13:00;125150
10.01.2023 13:15;125682
10.01.2023 13:30;126425
10.01.2023 13:45;125921
10.01.2023 14:00;123858
10.01.2023 14:15;124324
10.01.2023 14:30;124836
10.01.2023 14:45;124754
10.01.2023 15:00;123853
10.01.2023 15:15;123165
10.01.2023 15:30;127716
10.01.2023 15:45;133428
10.01.2023 16:00;130572
10.01.2023 16:15;131340
10.01.2023 16:30;134312
10.01.2023 16:45;129700
10.01.2023 17:00;132360
10.01.2023 17:15;132828
10.01.2023 17:30;124092
10.01.2023 17:45;122943
10.01.2023 18:00;122890
10.01.2023 18:15;121113
10.01.2023 18:30;120451
10.01.2023 18:45;122042
10.01.2023 19:00;123759
10.01.2023 19:15;121524
10.01.2023 19:30;121198
10.01.2023 19:45;120851
10.01.2023 20:00;120267
10.01.2023 20:15;121101
10.01.2023 20:30;122374
10.01.2023 20:45;121740
10.01.2023 21:00;122040
10.01.2023 21:15;123412
10.01.2023 21:30;124160
10.01.2023 21:45;121600
10.01.2023 22:00;122624
10.01.2023 22:15;122748
10.01.2023 22:30;123936
10.01.2023 22:45;123914
10.01.2023 23:00;123802